KD8AIF Weather Reports


time (UTC)temp
C
wind
direction
speed
KPH
gust
KPH
rain 1hr
cm
rain 24hr
cm
rain mn
cm
humidity
%
barometer
mb
20260509091004 10 113 1.6 3.2 0.00 0.00 0.00 83 980.0
20260509085004 11 132 1.6 4.8 0.00 0.00 0.00 82 980.3
20260509084004 11 136 0.0 3.2 0.00 0.00 0.00 80 980.0
20260509083003 10 116 0.0 3.2 0.00 0.00 0.00 78 980.2
20260509082003 10 109 0.0 3.2 0.00 0.00 0.00 76 980.4
20260509081004 10 97 0.0 3.2 0.00 0.00 0.00 74 980.5
20260509080004 10 85 0.0 3.2 0.00 0.00 0.00 73 980.7
20260509075004 10 77 0.0 3.2 0.00 0.00 0.00 70 981.2
20260509074003 10 101 1.6 4.8 0.00 0.00 0.00 67 981.2
20260509073003 10 104 1.6 4.8 0.00 0.00 0.00 64 981.2
20260509072004 11 161 1.6 4.8 0.00 0.00 0.00 62 981.3
20260509071004 11 135 3.2 8.0 0.00 0.00 0.00 61 981.3
20260509065004 11 120 1.6 4.8 0.00 0.00 0.00 55 981.4
20260509063003 11 108 1.6 4.8 0.00 0.00 0.00 46 981.7
20260509062004 10 107 0.0 3.2 0.00 0.00 0.00 41 981.9
20260509061004 10 92 0.0 3.2 0.00 0.00 0.00 39 982.0
20260509060005 10 92 0.0 3.2 0.00 0.00 0.00 40 982.2
20260509055004 10 107 0.0 3.2 0.00 0.00 0.00 40 982.3
20260509054003 10 88 0.0 1.6 0.00 0.00 0.00 40 982.5
20260509053004 10 134 0.0 3.2 0.00 0.00 0.00 40 982.4
20260509051004 10 96 0.0 1.6 0.00 0.00 0.00 40 982.5
20260509050004 10 106 0.0 1.6 0.00 0.00 0.00 40 982.6
20260509045004 9 121 0.0 1.6 0.00 0.00 0.00 41 982.8
20260509044004 9 111 0.0 1.6 0.00 0.00 0.00 41 982.8
20260509043005 8 105 0.0 1.6 0.00 0.00 0.00 45 983.1
20260509042004 8 106 0.0 1.6 0.00 0.00 0.00 46 983.2
20260509040005 8 94 1.6 3.2 0.00 0.00 0.00 47 983.3
20260509035004 8 97 1.6 1.6 0.00 0.00 0.00 51 983.7
20260509034004 9 116 0.0 1.6 0.00 0.00 0.00 49 983.7
20260509033004 9 132 0.0 3.2 0.00 0.00 0.00 48 983.8
20260509031004 9 96 0.0 3.2 0.00 0.00 0.00 45 984.0
20260509024004 10 71 0.0 1.6 0.00 0.00 0.00 47 984.5
20260509023004 10 77 0.0 1.6 0.00 0.00 0.00 47 984.6
20260509022004 10 68 0.0 1.6 0.00 0.00 0.00 45 984.6
20260509021003 10 63 0.0 1.6 0.00 0.00 0.00 44 984.5
20260509015004 11 87 0.0 1.6 0.00 0.00 0.00 44 984.1
20260509014004 11 78 0.0 1.6 0.00 0.00 0.00 43 984.4
20260509013004 12 21 0.0 1.6 0.00 0.00 0.00 40 984.4
20260509012003 12 99 0.0 1.6 0.00 0.00 0.00 38 984.3
20260509011004 13 231 0.0 1.6 0.00 0.00 0.00 36 984.3
20260509005004 14 67 0.0 3.2 0.00 0.00 0.00 30 984.3
20260509004004 15 93 0.0 3.2 0.00 0.00 0.00 28 984.1
20260509003004 15 204 1.6 4.8 0.00 0.00 0.00 26 984.0
20260509002004 16 176 1.6 4.8 0.00 0.00 0.00 26 984.0
20260509001004 16 151 0.0 11.3 0.00 0.00 0.00 26 984.0
20260509000004 16 183 3.2 4.8 0.00 0.00 0.00 25 984.1
20260508234004 17 208 3.2 9.7 0.00 0.00 0.00 25 984.0
20260508233004 17 160 3.2 12.9 0.00 0.00 0.00 25 983.5
20260508232004 17 202 6.4 12.9 0.00 0.00 0.00 25 983.3
20260508231004 17 182 3.2 12.9 0.00 0.00 0.00 24 983.2
20260508230004 17 242 3.2 9.7 0.00 0.00 0.00 25 983.5
20260508223003 17 356 3.2 11.3 0.00 0.00 0.00 24 983.4
20260508222004 17 273 4.8 12.9 0.00 0.00 0.00 25 983.5
20260508221004 17 232 3.2 12.9 0.00 0.00 0.00 24 983.5
20260508215004 17 314 4.8 11.3 0.00 0.00 0.00 24 983.4
20260508214004 17 240 3.2 9.7 0.00 0.00 0.00 25 983.2
20260508212003 17 325 3.2 12.9 0.00 0.00 0.00 26 983.3
20260508211004 17 254 3.2 11.3 0.00 0.00 0.00 26 983.2
20260508210004 17 271 8.0 14.5 0.00 0.00 0.00 24 983.4
20260508205004 17 242 3.2 12.9 0.00 0.00 0.00 24 983.2
20260508204004 17 270 6.4 14.5 0.00 0.00 0.00 25 983.4
20260508203004 17 250 3.2 12.9 0.00 0.00 0.00 24 983.4
20260508202004 17 215 3.2 12.9 0.00 0.00 0.00 24 983.4
20260508201004 17 329 1.6 12.9 0.00 0.00 0.00 26 983.4
20260508200004 17 269 3.2 14.5 0.00 0.00 0.00 24 983.5
20260508194004 17 255 4.8 16.1 0.00 0.00 0.00 24 983.7
20260508193004 17 331 3.2 12.9 0.00 0.00 0.00 26 983.5
20260508192004 17 204 4.8 12.9 0.00 0.00 0.00 25 983.9
20260508191004 16 239 4.8 12.9 0.00 0.00 0.00 24 984.2
20260508190004 17 163 3.2 12.9 0.00 0.00 0.00 24 983.8
20260508185003 17 258 3.2 11.3 0.00 0.00 0.00 25 984.3
20260508183004 17 316 1.6 11.3 0.00 0.00 0.00 26 984.3
20260508182004 17 225 6.4 14.5 0.00 0.00 0.00 25 984.5
20260508181004 16 206 4.8 19.3 0.00 0.00 0.00 27 985.0
20260508180004 16 298 3.2 11.3 0.00 0.00 0.00 28 984.5
20260508175004 16 199 1.6 16.1 0.00 0.00 0.00 28 984.4
20260508174004 16 308 4.8 14.5 0.00 0.00 0.00 28 984.6
20260508173004 16 6 4.8 12.9 0.00 0.00 0.00 29 985.3
20260508172003 16 289 3.2 11.3 0.00 0.00 0.00 30 984.9
20260508171004 16 270 3.2 12.9 0.00 0.00 0.00 30 984.8
20260508170004 16 23 3.2 11.3 0.00 0.00 0.00 29 984.9
20260508163004 15 227 3.2 12.9 0.00 0.00 0.00 32 985.5
20260508162004 15 129 4.8 12.9 0.00 0.00 0.00 31 985.4
20260508161004 15 163 1.6 9.7 0.00 0.00 0.00 30 985.5
20260508160004 15 121 1.6 12.9 0.00 0.00 0.00 30 985.3
20260508155004 15 317 3.2 14.5 0.00 0.00 0.00 32 985.6
20260508153004 15 151 1.6 9.7 0.00 0.00 0.00 33 985.5
20260508152004 14 119 3.2 14.5 0.00 0.00 0.00 37 985.7
20260508151004 14 227 4.8 9.7 0.00 0.00 0.00 33 985.8
20260508150004 14 315 3.2 11.3 0.00 0.00 0.00 43 985.8
20260508145005 13 211 1.6 9.7 0.00 0.00 0.00 38 985.9
20260508144004 13 263 3.2 11.3 0.00 0.00 0.00 39 985.8
20260508143004 13 187 3.2 12.9 0.00 0.00 0.00 39 985.9
20260508142004 13 214 1.6 8.0 0.00 0.00 0.00 43 985.9
20260508141004 13 155 3.2 8.0 0.00 0.00 0.00 46 986.0
20260508140004 12 161 1.6 4.8 0.00 0.00 0.00 50 985.9
20260508135004 12 129 1.6 11.3 0.00 0.00 0.00 52 985.9
20260508134004 12 105 1.6 11.3 0.00 0.00 0.00 55 985.9
20260508133004 11 129 1.6 8.0 0.00 0.00 0.00 57 985.9
20260508132003 11 100 1.6 4.8 0.00 0.00 0.00 60 986.5
20260508130004 10 42 1.6 4.8 0.00 0.00 0.00 62 986.9
20260508125004 9 170 1.6 4.8 0.00 0.00 0.00 65 986.9
20260508124004 8 25 1.6 4.8 0.00 0.00 0.00 66 987.1
20260508120003 3 103 0.0 1.6 0.00 0.00 0.00 90 987.1
20260508115003 3 67 0.0 3.2 0.00 0.00 0.00 94 987.9
20260508114004 2 75 0.0 1.6 0.00 0.00 0.00 94 988.1
20260508113004 2 49 0.0 1.6 0.00 0.00 0.00 95 987.9
20260508112004 1 99 0.0 1.6 0.00 0.00 0.00 95 988.1
20260508111004 1 79 0.0 1.6 0.00 0.00 0.00 94 988.5
20260508110004 1 82 0.0 1.6 0.00 0.00 0.00 94 988.5
20260508105004 1 39 0.0 1.6 0.00 0.00 0.00 94 988.4
20260508103004 1 358 0.0 3.2 0.00 0.00 0.00 93 988.3
20260508102004 1 55 0.0 1.6 0.00 0.00 0.00 92 988.4
20260508101004 1 4 0.0 1.6 0.00 0.00 0.00 92 988.3
20260508100003 1 41 0.0 1.6 0.00 0.00 0.00 92 988.6
20260508095004 2 44 0.0 0.0 0.00 0.00 0.00 91 988.6
20260508094004 2 39 0.0 3.2 0.00 0.00 0.00 90 988.5
20260508093003 2 37 0.0 1.6 0.00 0.00 0.00 90 988.6
20260508092004 2 31 0.0 3.2 0.00 0.00 0.00 89 988.4